DW0126 Tenino WA US current weather conditions

sailwx.info

Wind from 258

Air temperature 6.1° C
Dewpoint 4.6° C

Last reported at 2019-Dec-15 23:00 UTC.
Time now 2019-Dec-15 23:51 UTC

Location: N 46°51' W 122°51'.
View on Google Maps.

See reports from other nearby stations

  
Tides and Currents Weather Stations Pressure Air Temp Water Temp Dewpoint Dewpoint Depression Visibility Wind Speed Wind Dir Waves Ship Positions
date/time (UTC)wind fromknots sea level pressurealtimeterstation pressurevisibilityair tempwater tempwave heightnotes
2019-Dec-15 23:00 258 6.1
2019-Dec-15 22:50 258 6.1
2019-Dec-15 22:40 258 0 gusting 4 6.1
2019-Dec-15 22:30 260 6.7
2019-Dec-15 22:20 260 6.1
2019-Dec-15 22:10 198 0 gusting 5 6.1
2019-Dec-15 22:00 248 1 gusting 5 6.1
2019-Dec-15 21:50 249 0 gusting 6 6.1
2019-Dec-15 21:40 247 1 gusting 6 6.1
2019-Dec-15 21:30 240 0 gusting 4 6.1
2019-Dec-15 21:20 240 0 gusting 6 6.1
2019-Dec-15 21:10 240 0 gusting 6 5.6
2019-Dec-15 21:00 240 0 gusting 5 5.6
2019-Dec-15 20:50 240 0 gusting 6 5.6
2019-Dec-15 20:40 240 1 gusting 6 5.0
2019-Dec-15 20:30 244 1 gusting 5 5.0
2019-Dec-15 20:20 243 1 gusting 4 5.0
2019-Dec-15 20:10 227 1 gusting 4 5.0
2019-Dec-15 20:00 226 1 gusting 4 5.0
2019-Dec-15 19:50 242 1 gusting 5 5.0
2019-Dec-15 19:40 235 1 gusting 6 5.0
2019-Dec-15 19:30 236 2 gusting 6 5.0
2019-Dec-15 19:20 237 1 gusting 6 5.0
2019-Dec-15 19:10 236 2 gusting 6 4.4
2019-Dec-15 19:00 235 2 gusting 6 4.4
2019-Dec-15 18:50 236 2 gusting 5 4.4
2019-Dec-15 18:40 235 1 gusting 6 4.4
2019-Dec-15 18:30 245 2 gusting 6 3.9
2019-Dec-15 18:20 247 1 gusting 6 3.9
2019-Dec-15 18:10 248 2 gusting 6 3.9
2019-Dec-15 18:00 239 2 gusting 6 3.9
2019-Dec-15 17:50 245 2 gusting 6 3.9
2019-Dec-15 17:40 232 1 gusting 6 3.9
2019-Dec-15 17:30 230 2 gusting 6 3.9
2019-Dec-15 17:20 229 2 gusting 5 3.3
2019-Dec-15 17:10 228 2 gusting 5 3.3
2019-Dec-15 17:00 228 1 gusting 3 3.3
2019-Dec-15 16:50 228 0 gusting 3 3.3
2019-Dec-15 16:40 228 0 gusting 3 3.3
2019-Dec-15 16:30 228 0 gusting 3 3.3
2019-Dec-15 16:20 228 0 gusting 3 3.3
2019-Dec-15 16:10 228 1 gusting 3 3.3
2019-Dec-15 16:00 228 1 gusting 4 3.9
2019-Dec-15 15:50 228 1 gusting 4 3.9
2019-Dec-15 15:40 228 1 gusting 4 3.9
2019-Dec-15 15:30 228 0 gusting 4 3.9
2019-Dec-15 15:20 228 0 gusting 3 3.9
2019-Dec-15 15:10 228 0 gusting 3 3.9
2019-Dec-15 15:00 228 0 gusting 3 4.4
2019-Dec-15 14:50 228 0 gusting 4 4.4
2019-Dec-15 14:40 228 0 gusting 4 4.4
2019-Dec-15 14:30 228 1 gusting 5 4.4
2019-Dec-15 14:20 228 2 gusting 5 4.4
2019-Dec-15 14:10 228 4.4
2019-Dec-15 14:00 229 5.0
2019-Dec-15 13:50 229 4.4
2019-Dec-15 13:40 229 4.4
2019-Dec-15 13:30 229 5.0
2019-Dec-15 13:20 229 5.0
2019-Dec-15 13:10 5.0
2019-Dec-15 13:00 4.4
2019-Dec-15 12:50 5.0
2019-Dec-15 12:40 5.0
2019-Dec-15 12:30 5.0
2019-Dec-15 12:20 228 5.0
2019-Dec-15 12:10 228 0 gusting 3 5.0
2019-Dec-15 12:00 228 0 gusting 3 5.0
2019-Dec-15 11:50 5.0
2019-Dec-15 11:40 228 0 gusting 3 5.0
2019-Dec-15 11:30 228 1 gusting 3 5.0
2019-Dec-15 11:20 228 1 gusting 3 5.0
2019-Dec-15 11:10 228 0 gusting 3 5.0
2019-Dec-15 11:00 228 5.0
2019-Dec-15 10:50 228 5.0
2019-Dec-15 10:40 5.0
2019-Dec-15 10:30 5.0
2019-Dec-15 10:20 229 5.0
2019-Dec-15 10:10 228 0 gusting 3 5.0
2019-Dec-15 10:00 229 5.0
2019-Dec-15 09:50 5.0
2019-Dec-15 09:40 229 5.0
2019-Dec-15 09:30 5.0
2019-Dec-15 09:20 5.0
2019-Dec-15 09:10 5.0
2019-Dec-15 09:00 5.0
2019-Dec-15 08:50 5.6
2019-Dec-15 08:40 5.6
2019-Dec-15 08:30 5.6
2019-Dec-15 08:20 229 5.6
2019-Dec-15 08:10 5.0
2019-Dec-15 08:00 5.0
2019-Dec-15 07:50 5.0
2019-Dec-15 07:40 229 5.6
2019-Dec-15 07:30 229 5.6
2019-Dec-15 07:20 5.6
2019-Dec-15 07:10 229 5.6
2019-Dec-15 07:00 6.1
2019-Dec-15 06:50 229 5.6
2019-Dec-15 06:40 228 0 gusting 2 5.0
2019-Dec-15 06:30 228 0 gusting 2 5.6
2019-Dec-15 06:20 228 0 gusting 2 5.6
2019-Dec-15 06:10 229 5.6
2019-Dec-15 06:00 229 6.1
2019-Dec-15 05:50 5.6
2019-Dec-15 05:40 228 6.1
2019-Dec-15 05:30 229 5.6
2019-Dec-15 05:20 5.6
2019-Dec-15 05:10 5.6
2019-Dec-15 05:00 229 5.6
2019-Dec-15 04:50 5.6
2019-Dec-15 04:40 5.6
2019-Dec-15 04:30 5.6
2019-Dec-15 04:20 229 6.1
2019-Dec-15 04:10 229 6.1
2019-Dec-15 04:00 6.1
2019-Dec-15 03:50 6.1
2019-Dec-15 03:40 6.1
2019-Dec-15 03:30 6.1
2019-Dec-15 03:20 6.1
2019-Dec-15 03:10 6.1
2019-Dec-15 03:00 229 6.1
2019-Dec-15 02:50 229 6.1
2019-Dec-15 02:40 6.1
2019-Dec-15 02:30 6.1
2019-Dec-15 02:20 6.1
2019-Dec-15 02:10 229 6.1
2019-Dec-15 02:00 6.1
2019-Dec-15 01:50 6.1
2019-Dec-15 01:40 6.1
2019-Dec-15 01:30 229 6.1
2019-Dec-15 01:20 6.1
2019-Dec-15 01:10 6.1
2019-Dec-15 01:00 6.1
2019-Dec-15 00:50 6.7
2019-Dec-15 00:40 6.7
2019-Dec-15 00:30 6.7
2019-Dec-15 00:20 6.7
2019-Dec-15 00:10 6.7
2019-Dec-15 00:00 6.7
2019-Dec-14 23:50 6.7
2019-Dec-14 23:40 229 6.7
2019-Dec-14 23:30 229 7.2
2019-Dec-14 23:20 229 7.2
2019-Dec-14 23:10 229 7.2
2019-Dec-14 23:00 229 6.7
2019-Dec-14 22:50 228 6.7
2019-Dec-14 22:40 228 6.7
2019-Dec-14 22:30 228 6.7
2019-Dec-14 22:20 228 6.7
2019-Dec-14 22:10 228 6.7
2019-Dec-14 22:00 228 6.7
2019-Dec-14 21:50 229 6.7
2019-Dec-14 21:40 229 6.7
2019-Dec-14 21:30 228 6.7
2019-Dec-14 21:20 228 6.7
2019-Dec-14 21:00 227 0 gusting 5 6.7
2019-Dec-14 20:50 234 6.7
2019-Dec-14 20:40 245 1 gusting 6 6.1
2019-Dec-14 20:30 221 0 gusting 3 6.7
2019-Dec-14 20:20 221 6.1
2019-Dec-14 20:10 220 6.7
2019-Dec-14 20:00 190 6.7
2019-Dec-14 19:50 167 6.1
2019-Dec-14 19:40 167 6.1
2019-Dec-14 19:30 174 0 gusting 5 6.1
2019-Dec-14 19:20 262 6.1
2019-Dec-14 19:10 262 0 gusting 3 6.1
2019-Dec-14 19:00 262 6.1
2019-Dec-14 18:50 262 5.6
2019-Dec-14 18:40 262 0 gusting 4 5.6
2019-Dec-14 18:30 262 5.6
2019-Dec-14 18:20 262 0 gusting 4 5.6
2019-Dec-14 18:10 263 0 gusting 4 5.0
2019-Dec-14 18:00 262 0 gusting 4 5.6
2019-Dec-14 17:50 324 5.6
2019-Dec-14 17:40 5.6
2019-Dec-14 17:30 260 5.0
2019-Dec-14 17:20 241 5.0
2019-Dec-14 17:10 242 0 gusting 3 5.0
2019-Dec-14 17:00 241 5.0
2019-Dec-14 16:50 241 5.0
2019-Dec-14 16:40 241 5.0
2019-Dec-14 16:30 241 5.0
2019-Dec-14 16:20 241 5.0
2019-Dec-14 16:10 241 5.0
2019-Dec-14 16:00 242 5.0
2019-Dec-14 15:50 242 0 gusting 4 5.0
2019-Dec-14 15:40 242 0 gusting 4 5.0
2019-Dec-14 15:30 242 1 gusting 4 5.0
2019-Dec-14 15:20 242 0 gusting 4 5.0
2019-Dec-14 15:10 242 1 gusting 4 5.0
2019-Dec-14 15:00 242 0 gusting 4 4.4
2019-Dec-14 14:50 242 0 gusting 4 4.4
2019-Dec-14 14:40 242 4.4
2019-Dec-14 14:30 4.4
2019-Dec-14 14:20 241 5.0
2019-Dec-14 14:10 241 5.0
2019-Dec-14 14:00 241 4.4
2019-Dec-14 13:50 242 4.4
2019-Dec-14 13:40 242 4.4
2019-Dec-14 13:30 242 4.4
2019-Dec-14 13:20 4.4
2019-Dec-14 13:10 4.4
2019-Dec-14 13:00 4.4
2019-Dec-14 12:50 242 4.4
2019-Dec-14 12:40 4.4
2019-Dec-14 12:30 4.4
2019-Dec-14 12:20 4.4
2019-Dec-14 12:10 4.4
2019-Dec-14 12:00 4.4
2019-Dec-14 11:50 4.4
2019-Dec-14 11:40 4.4
2019-Dec-14 11:30 242 4.4
2019-Dec-14 11:20 4.4
2019-Dec-14 11:10 241 4.4
2019-Dec-14 11:00 4.4
2019-Dec-14 10:50 4.4
2019-Dec-14 10:40 4.4
2019-Dec-14 10:30 242 5.0
2019-Dec-14 10:20 242 5.0
2019-Dec-14 10:10 242 0 gusting 4 5.0
2019-Dec-14 10:00 239 1 gusting 6 5.0
2019-Dec-14 09:50 241 3 gusting 6 5.0
2019-Dec-14 09:40 247 3 gusting 6 4.4
2019-Dec-14 09:30 248 3.9
2019-Dec-14 09:20 4.4
2019-Dec-14 09:00 248 0 gusting 5 4.4
2019-Dec-14 08:50 247 2 gusting 5 5.0
2019-Dec-14 08:40 246 2 gusting 5 5.0
2019-Dec-14 08:30 246 2 gusting 5 5.0
2019-Dec-14 08:20 234 3 gusting 5 5.0
2019-Dec-14 08:10 233 2 gusting 5 4.4
2019-Dec-14 08:00 234 1 gusting 5 4.4
2019-Dec-14 07:50 234 0 gusting 3 3.9
2019-Dec-14 07:40 234 3.3
2019-Dec-14 07:30 234 2.8
2019-Dec-14 07:20 234 2.8
2019-Dec-14 07:10 2.8
2019-Dec-14 07:00 234 2.8
2019-Dec-14 06:50 2.8
2019-Dec-14 06:40 233 3.3
2019-Dec-14 06:30 234 0 gusting 2 3.3
2019-Dec-14 06:20 234 2.8
2019-Dec-14 06:10 2.8
2019-Dec-14 06:00 2.8
2019-Dec-14 05:50 2.8
2019-Dec-14 05:40 2.8
2019-Dec-14 05:30 2.8
2019-Dec-14 05:20 2.8
2019-Dec-14 05:10 234 2.8
2019-Dec-14 05:00 234 2.8
2019-Dec-14 04:50 2.8
2019-Dec-14 04:40 2.8
2019-Dec-14 04:30 2.8
2019-Dec-14 04:20 3.3
2019-Dec-14 04:10 2.8
2019-Dec-14 04:00 3.3
2019-Dec-14 03:50 2.8
2019-Dec-14 03:40 3.3
2019-Dec-14 03:30 234 3.3
2019-Dec-14 03:20 3.3
2019-Dec-14 03:10 3.9
2019-Dec-14 03:00 234 3.9
2019-Dec-14 02:50 3.9
2019-Dec-14 02:40 3.9
2019-Dec-14 02:30 234 3.9
2019-Dec-14 02:20 233 3.9
2019-Dec-14 02:10 234 3.9
2019-Dec-14 02:00 234 4.4
2019-Dec-14 01:50 234 4.4
2019-Dec-14 01:40 4.4
2019-Dec-14 01:30 233 5.0
2019-Dec-14 01:20 234 5.0
2019-Dec-14 01:10 5.6
2019-Dec-14 01:00 5.6
2019-Dec-14 00:50 5.6
2019-Dec-14 00:40 6.1
2019-Dec-14 00:30 234 6.1
2019-Dec-14 00:20 7.2
2019-Dec-14 00:10 7.2
2019-Dec-14 00:00 234 7.8
2019-Dec-13 23:50 234 0 gusting 2 8.3
2019-Dec-13 23:40 233 8.9
2019-Dec-13 23:30 234 0 gusting 5 8.9
2019-Dec-13 23:20 234 1 gusting 6 9.4
2019-Dec-13 23:10 234 0 gusting 6 10.0
2019-Dec-13 23:00 235 0 gusting 4 10.0